Regional Weather Roundup
Issued by NWS

Home | Current Version | Previous Version | Graphics & Text | Print | Product List | Glossary Off
Versions: 1 2 3 4 5 6 7 8 9 10 11 12 13 14 15 16 17 18 19 20 21 22 23 24 25 26 27 28 29 30 31 32 33 34 35 36 37 38 39 40 41 42 43 44 45 46 47 48 49 50

000
ASUS43 KDMX 301707
RWRIA

WEATHER ROUNDUP FOR IOWA
NATIONAL WEATHER SERVICE DES MOINES IA
1200 PM CDT THU JUL 30 2015

NOTE: "FAIR" INDICATES FEW OR NO CLOUDS BELOW 12,000 FEET WITH NO
SIGNIFICANT WEATHER AND/OR OBSTRUCTIONS TO VISIBILITY.

* - THESE STATIONS ARE NOT NWS STATIONS...THUS NOT UNDER NWS
QUALITY CONTROL.  THEY ALSO DO NOT REPORT WEATHER SUCH
AS PRECIPITATION OR FOG.

IAZ001>003-012>014-020>022-031>034-043>046-301800-
   NORTHWEST IOWA

CITY           SKY/WX    TMP DP  RH WIND       PRES   REMARKS
CARROLL *      SUNNY     79  66  65 W10G17    30.19R HX  81
CHEROKEE *     SUNNY     79  63  57 W14G20    30.17S HX  80
DENISON *      SUNNY     79  64  61 W9        30.19S HAZE    HX  81
LE MARS *      SUNNY     81  64  57 W10G17    30.18S HX  82
ORANGE CITY *  SUNNY     79  64  61 W8        30.18R HX  81
SHELDON *      SUNNY     79  64  61 SW9       30.16R HX  81
SIOUX CITY     SUNNY     82  64  54 W12       30.18S HX  83
SPENCER        SUNNY     82  61  48 W10       30.15S HX  83
STORM LAKE *   SUNNY     79  64  61 W13       30.19S HX  81
$$

IAZ055>058-069>071-079>083-090>094-301800-
   SOUTHWEST IOWA

CITY           SKY/WX    TMP DP  RH WIND       PRES   REMARKS
ATLANTIC *     SUNNY     82  63  51 W12       30.21S HX  83
AUDUBON *      SUNNY     81  66  61 W6        30.22S HX  83
CLARINDA *     SUNNY     82  64  54 VRB7      30.23S HX  84
COUNCIL BLFS * SUNNY     82  63  51 SW6       30.22S HX  83
CRESTON *      SUNNY     81  63  54 W13       30.23S HX  82
HARLAN  *      SUNNY     81  70  69 W10       30.25R HX  84
LAMONI         SUNNY     83  63  50 W12       30.21S HX  84
RED OAK *      SUNNY     82  66  57 SW7       30.21F HX  85
SHENANDOAH *   SUNNY     82  66  57 SW8       30.22S HX  85
$$

IAZ047>049-059>061-072>074-084-301800-
   CENTRAL IOWA

CITY           SKY/WX    TMP DP  RH WIND       PRES   REMARKS
AMES           MOSUNNY   81  65  58 W13       30.16S HX  83
ANKENY *       SUNNY     82  63  51 W14       30.17S HX  83
CHARITON *     SUNNY     82  63  51 W10G16    30.19S HX  83
DES MOINES     MOSUNNY   85  58  39 W15       30.17S HX  84
GRINNELL*      SUNNY     81  61  50 W14       30.16F HX  81
KNOXVILLE *    SUNNY     81  63  54 W12       30.17S HX  82
MARSHALLTOWN   SUNNY     80  67  64 W12       30.14S HX  82
PELLA *        SUNNY     82  68  61 W10       30.18S HX  85
PERRY *          N/A     81  66  61 W13       30.18S HX  83
$$

IAZ004>006-015-016-023>025-035-036-301800-
   NORTH CENTRAL IOWA

CITY           SKY/WX    TMP DP  RH WIND       PRES   REMARKS
ALGONA *       SUNNY     81  66  61 W9        30.15R HX  83
CLARION *      SUNNY     81  68  65 SW8       30.14S HX  83
ESTHERVILLE    SUNNY     80  65  59 SW6       30.15R HX  82
FORT DODGE *   PTSUNNY   81  64  57 W9        30.17S HX  82
MASON CITY     SUNNY     82  64  54 W10       30.15R HX  83
FOREST CITY *  SUNNY     81  61  50 NW12      30.14R HX  81
IOWA FALLS *     N/A     81  64  57 W10       30.16S HX  82
$$

IAZ007>011-017>019-026>030-037>042-050>054-066-301800-
   NORTHEAST IOWA

CITY           SKY/WX    TMP DP  RH WIND       PRES   REMARKS
CEDAR RAPIDS   SUNNY     80  68  66 SW8       30.13S HX  83
CHARLES CITY * SUNNY     81  63  54 W15       30.13S HX  82
CLINTON *      SUNNY     81  66  61 W13       30.14  HX  83
DECORAH *      SUNNY     81  55  41 NW12G21   30.09F HX  80
DUBUQUE        SUNNY     81  58  45 W12       30.12R HX  81
MONTICELLO *   SUNNY     82  64  54 W9        30.12S HX  84
OELWEIN *      SUNNY     81  63  54 W9        30.13S HX  82
WATERLOO       SUNNY     82  66  58 W12       30.11S HX  84
$$

IAZ064-065-067-068-078-301800-
   EAST CENTRAL IOWA

CITY           SKY/WX    TMP DP  RH WIND       PRES   REMARKS
DAVENPORT      SUNNY     82  66  58 W6        30.13S HX  84
IOWA CITY      SUNNY     82  65  56 W13       30.14S HX  84
MT. PLEASANT * SUNNY     84  55  37 W10       30.16F HX  83
MUSCATINE *    SUNNY     84  64  51 W9        30.14S HX  86
QUAD CITIES    SUNNY     84  63  49 W8        30.12S HX  85
$$

IAZ062-063-075>077-085>089-095>099-301800-
   SOUTHEAST IOWA

CITY           SKY/WX    TMP DP  RH WIND       PRES   REMARKS
BURLINGTON     SUNNY     83  62  49 W9        30.16R HX  84
FAIRFIELD *    SUNNY     81  63  54 W9G16     30.17S HX  82
FORT MADISON * SUNNY     81  63  54 W9        30.17S HX  82
KEOKUK *       SUNNY     84  63  48 W10G17    30.16S HX  85
OSKALOOSA *      N/A     81  64  57 W10       30.17F HX  82
CENTERVILLE *  SUNNY     82  61  47 W13       30.21S HX  83
OTTUMWA        SUNNY     81  64  56 W12       30.16S HX  82
WASHINGTON *   SUNNY     82  66  57 W12G17    30.16S HX  85
$$

ABBREVIATIONS USED IN REMARKS
   TC - TEMPERATURES IN CELSIUS
  WCI - WIND CHILL INDEX
   HX - HEAT INDEX
  VSB - VISIBILITY
$$




USA.gov is the U.S. government's official web portal to all federal, state and local government web resources and services.